Location: WHS+Essen
(51.3947°N, 6.9794°E)
Time: 05:49:36
(UTC+02:00)

ISS - Pass Details

Date: 22 May 2019
Orbit: 407 x 418 km, 51.6° (Epoch: 20 June)

Event Time Altitude Azimuth Distance (km) Brightness Sun altitude
Rises 02:37:35 0° 284° (WNW) 2,368 0.0 -16.7°
Reaches altitude 10° 02:39:47 10° 275° (W) 1,503 -1.1 -16.6°
Enters shadow 02:40:57 18° 264° (W) 1,091 -1.9 -16.6°
